Find CSTP-4.3

NORAD ID: 64882 Int'l Des: NNA 2025-155 Owner: STTS Country: RU operational
LEOCIRCULARRETROGRADESSO

实时位置

正在加载3D地球...

关于 CSTP-4.3

正在加载描述...

即将过境

Passes for default location (London). Set your location on the main map for personalized predictions.

高度历史

Loading altitude history...

两行轨道根数

1 64882U 25155G 26107.23242132 .00006112 00000-0 22322-3 0 9995
2 64882 97.4540 75.6288 0008798 46.7652 313.4320 15.28451468 71443
Epoch: Apr 17, 2026 • Age: 9 hours

当前状态

高度 479.3 km
速度 7.63 km/s
星下点 -0.13°S, 5.21°E
发射日期 Jul 25, 2025
运行时间 0.7 years
类型 other

技术详情

分类 Payload
质量 3.00 kg
干质量 3.00 kg
总质量 3.00 kg
长度 0.30 m
直径 0.10 m
跨度 0.30 m
形状 Box
制造商 STTS
平台类型 Cubesat 3U
阶段状态 In Orbit
所有者/国家 STTS/RU

Most Searched